Preview of NWS' New Version of Forecast
This preview is not operational and should not be used for support decisions.

Regional Weather Roundup (RWR)

Issued by Binghamton, NY (BGM)

                            
000
ASUS41 KBGM 160810
RWRBGM

REGIONAL WEATHER ROUNDUP
NATIONAL WEATHER SERVICE BINGHAMTON NY
400 AM EDT TUE OCT 16 2018

Note: "fair" indicates few or no clouds below 12,000 feet with no
significant weather and/or obstructions to visibility.

* = Station(s) that does not report precipitation, such as rain, 
snow, etc, also no thunder or fog.

NYZ009-015>018-022>025-036-037-044>046-055>057-062-160900
...Central New York...
  
CITY           SKY/WX    TMP DP  RH WIND       PRES   REMARKS
Binghamton     FAIR      35  25  66 W9        30.07F WCI  28          
Cortland       FAIR      36  30  80 W8        30.09S WCI  29          
Dansville      CLOUDY    35  31  85 E3        30.14S                  
Elmira         FAIR      34  29  82 W3        30.13R                  
Seneca Falls   SUNNY     39  27  60 W8        30.13R WCI  34          
Ithaca         FAIR      37  27  67 W10       30.11S WCI  30          
Hamilton       CLEAR     39  27  60 NW9       30.06F WCI  33          
Hornell        CLEAR     30  28  93 CALM      30.16S                  
Monticello     FAIR      39  28  64 NW15G22   30.06R WCI  31          
Oneonta        CLEAR     36  27  69 W6        30.04S WCI  31          
Penn Yan       FAIR      38  27  64 W8        30.11F WCI  32          
Rome           MOCLDY    43  31  62 W13       30.07S                  
Sidney         PTCLDY    37  28  70 W5        30.10S WCI  34          
Syracuse       CLOUDY    41  29  62 SW15      30.09S                  
$$
 
PAZ038>040-043-044-047-048-072-160900
...Northeast Pennsylvania...
  
CITY           SKY/WX    TMP DP  RH WIND       PRES   REMARKS
Hazleton       FAIR      45  32  61 W6G16     30.11R                  
Scranton       FAIR      44  31  60 NW13G24   30.11R                  
$$
&&
KEY
WCI = Wind Chill Index
VSB = Visibility
HX  = Heat Index
$$